K4GZX-11 Weather Reports


Display with metric or nautical units.
time (UTC)temp
F
wind
direction
speed
MPH
gust
MPH
rain 1hr
in
rain 24hr
in
rain mn
in
humidity
%
barometer
mb
20260506212425 86 172 0.0 0.0 0.00 0.00 0.00 47 1011.7
20260506211925 86 172 0.0 1.0 0.00 0.00 0.00 45 1011.8
20260506211430 86 172 0.0 1.0 0.00 0.00 0.00 44 1012.0
20260506210937 86 172 0.0 1.0 0.00 0.00 0.00 44 1012.1
20260506210425 86 172 0.0 0.0 0.00 0.00 0.00 44 1012.1
20260506205930 86 172 0.0 0.0 0.00 0.00 0.00 46 1012.1
20260506205437 86 172 0.0 1.0 0.00 0.00 0.00 44 1012.3
20260506204925 86 172 0.0 1.0 0.00 0.00 0.00 42 1012.3
20260506204427 86 172 0.0 1.0 0.00 0.00 0.00 42 1012.3
20260506203934 86 172 0.0 0.0 0.00 0.00 0.00 44 1012.1
20260506203442 87 172 0.0 0.0 0.00 0.00 0.00 45 1012.1
20260506202949 87 172 0.0 0.0 0.00 0.00 0.00 44 1012.0
20260506202425 87 172 0.0 0.0 0.00 0.00 0.00 44 1012.2
20260506201909 87 172 0.0 1.0 0.00 0.00 0.00 44 1012.4
20260506201404 87 172 0.0 0.0 0.00 0.00 0.00 44 1012.5
20260506200857 88 172 0.0 1.0 0.00 0.00 0.00 46 1012.7
20260506200404 88 172 0.0 1.0 0.00 0.00 0.00 45 1012.8
20260506195852 88 172 0.0 0.0 0.00 0.00 0.00 43 1013.0
20260506195352 89 172 0.0 0.0 0.00 0.00 0.00 45 1013.0
20260506194852 89 172 0.0 0.0 0.00 0.00 0.00 40 1013.0
20260506194354 90 172 0.0 0.0 0.00 0.00 0.00 41 1013.1
20260506193901 90 172 0.0 1.0 0.00 0.00 0.00 40 1013.2
20260506193409 90 172 0.0 1.0 0.00 0.00 0.00 39 1013.2
20260506192916 91 172 0.0 0.0 0.00 0.00 0.00 40 1013.2
20260506192352 91 172 0.0 0.0 0.00 0.00 0.00 41 1013.4
20260506191852 90 172 0.0 1.0 0.00 0.00 0.00 40 1013.5
20260506191357 90 172 0.0 1.0 0.00 0.00 0.00 40 1013.6
20260506190904 90 172 0.0 0.0 0.00 0.00 0.00 40 1013.8
20260506190352 90 172 0.0 0.0 0.00 0.00 0.00 40 1013.8
20260506185852 90 172 0.0 1.0 0.00 0.00 0.00 42 1013.9
20260506185357 90 172 0.0 1.0 0.00 0.00 0.00 41 1014.0
20260506184904 90 172 0.0 0.0 0.00 0.00 0.00 39 1013.9
20260506184352 90 172 0.0 1.0 0.00 0.00 0.00 40 1014.0
20260506183852 90 172 0.0 1.0 0.00 0.00 0.00 41 1014.0
20260506183352 90 172 0.0 1.0 0.00 0.00 0.00 40 1013.8
20260506182852 90 172 0.0 2.0 0.00 0.00 0.00 41 1013.5
20260506182354 90 172 0.0 2.0 0.00 0.00 0.00 42 1013.4
20260506181901 90 172 0.0 0.0 0.00 0.00 0.00 41 1013.4
20260506181409 90 172 0.0 0.0 0.00 0.00 0.00 42 1013.8
20260506180904 89 172 0.0 0.0 0.00 0.00 0.00 44 1013.9
20260506180352 88 172 0.0 0.0 0.00 0.00 0.00 46 1014.0
20260506175852 87 172 0.0 0.0 0.00 0.00 0.00 45 1014.2
20260506175354 87 172 0.0 0.0 0.00 0.00 0.00 47 1014.0
20260506174901 86 172 0.0 0.0 0.00 0.00 0.00 48 1014.0
20260506174409 85 172 0.0 0.0 0.00 0.00 0.00 49 1014.0
20260506173916 85 172 0.0 0.0 0.00 0.00 0.00 50 1014.0
20260506173352 84 172 0.0 0.0 0.00 0.00 0.00 52 1014.1
20260506172852 83 172 0.0 0.0 0.00 0.00 0.00 53 1014.2
20260506172352 83 172 0.0 1.0 0.00 0.00 0.00 51 1014.3
20260506171852 82 172 0.0 1.0 0.00 0.00 0.00 54 1014.2
20260506171352 81 172 0.0 1.0 0.00 0.00 0.00 53 1014.5
20260506170852 81 172 0.0 1.0 0.00 0.00 0.00 58 1014.4
20260506170352 79 172 0.0 3.0 0.00 0.00 0.00 58 1014.0
20260506165852 78 172 0.0 3.0 0.00 0.00 0.00 61 1014.4
20260506165352 77 172 0.0 0.0 0.00 0.00 0.00 59 1014.9
20260506164852 77 172 0.0 0.0 0.00 0.00 0.00 60 1015.1
20260506164352 77 172 0.0 0.0 0.00 0.00 0.00 60 1015.3
20260506163852 77 172 0.0 1.0 0.00 0.00 0.00 60 1015.4
20260506163352 77 172 0.0 1.0 0.00 0.00 0.00 61 1015.5
20260506162856 77 172 0.0 0.0 0.00 0.00 0.00 60 1015.7
20260506162404 77 172 0.0 0.0 0.00 0.00 0.00 61 1015.6
20260506161852 76 172 0.0 0.0 0.00 0.00 0.00 63 1015.6
20260506161354 76 172 0.0 0.0 0.00 0.00 0.00 67 1015.8
20260506160901 75 172 0.0 0.0 0.00 0.00 0.00 66 1015.8
20260506160409 75 172 0.0 0.0 0.00 0.00 0.00 66 1015.7
20260506155904 74 172 0.0 0.0 0.00 0.00 0.00 67 1015.6
20260506155352 74 172 0.0 0.0 0.00 0.00 0.00 68 1015.7
20260506154852 74 172 0.0 0.0 0.00 0.00 0.00 67 1015.7
20260506154352 73 172 0.0 0.0 0.00 0.00 0.00 69 1015.4
20260506153852 73 172 0.0 0.0 0.00 0.00 0.00 71 1015.5
20260506153210 72 172 0.0 0.0 0.00 0.00 0.00 71 1015.5
20260506152718 72 172 0.0 0.0 0.00 0.00 0.00 71 1015.4
20260506152225 72 172 0.0 0.0 0.00 0.00 0.00 71 1015.4
20260506151706 71 172 0.0 0.0 0.00 0.00 0.00 71 1015.5
20260506151213 71 172 0.0 0.0 0.00 0.00 0.00 71 1015.5
20260506150701 71 172 0.0 1.0 0.00 0.00 0.00 71 1015.6
20260506150201 70 172 0.0 1.0 0.00 0.00 0.00 71 1015.6
20260506145701 70 172 0.0 0.0 0.00 0.00 0.00 72 1015.4
20260506145206 70 172 0.0 0.0 0.00 0.00 0.00 72 1015.3
20260506144713 70 172 0.0 0.0 0.00 0.00 0.00 73 1015.2
20260506144205 69 172 0.0 0.0 0.00 0.00 0.00 74 1015.2
20260506143713 69 172 0.0 0.0 0.00 0.00 0.00 75 1015.2
20260506143201 68 172 0.0 0.0 0.00 0.00 0.00 75 1015.2
20260506142701 68 172 0.0 0.0 0.00 0.00 0.00 76 1015.0
20260506142201 67 172 0.0 0.0 0.00 0.00 0.00 76 1014.8
20260506141701 67 172 0.0 0.0 0.00 0.00 0.00 76 1014.8
20260506141203 67 172 0.0 0.0 0.00 0.00 0.00 77 1014.9
20260506140710 67 172 0.0 0.0 0.00 0.00 0.00 77 1015.1
20260506140218 66 172 0.0 0.0 0.00 0.00 0.00 76 1015.1
20260506135713 66 172 0.0 0.0 0.00 0.00 0.00 76 1014.9
20260506135201 66 172 0.0 0.0 0.00 0.00 0.00 76 1014.9
20260506134701 66 172 0.0 0.0 0.00 0.00 0.00 77 1015.0
20260506134206 66 172 0.0 0.0 0.00 0.00 0.00 77 1015.0
20260506133713 65 172 0.0 0.0 0.00 0.00 0.00 77 1014.9
20260506133201 65 172 0.0 0.0 0.00 0.00 0.00 77 1015.0
20260506132701 65 172 0.0 0.0 0.00 0.00 0.00 77 1014.9
20260506132201 65 172 0.0 0.0 0.00 0.00 0.00 78 1015.0
20260506131701 65 172 0.0 0.0 0.00 0.00 0.00 78 1015.1
20260506131201 65 172 0.0 0.0 0.00 0.00 0.00 78 1015.0
20260506130701 64 172 0.0 0.0 0.00 0.00 0.00 78 1015.1
20260506130206 64 172 0.0 0.0 0.00 0.00 0.00 79 1015.2
20260506125713 64 172 0.0 0.0 0.00 0.00 0.00 78 1015.1
20260506125201 64 172 0.0 0.0 0.00 0.00 0.00 78 1015.1
20260506124701 64 172 0.0 0.0 0.00 0.00 0.00 78 1015.1
20260506124201 64 172 0.0 0.0 0.00 0.00 0.00 78 1015.2
20260506123701 64 172 0.0 0.0 0.00 0.00 0.00 78 1015.1
20260506123201 63 172 0.0 0.0 0.00 0.00 0.00 78 1014.9
20260506122701 63 172 0.0 0.0 0.00 0.00 0.00 77 1015.0
20260506122201 63 172 0.0 0.0 0.00 0.00 0.00 77 1015.0
20260506121701 63 172 0.0 0.0 0.00 0.00 0.00 77 1014.9
20260506121206 63 172 0.0 0.0 0.00 0.00 0.00 76 1014.9
20260506120713 63 172 0.0 0.0 0.00 0.00 0.00 76 1014.7
20260506120201 63 172 0.0 0.0 0.00 0.00 0.00 76 1014.9
20260506115701 63 172 0.0 0.0 0.00 0.00 0.00 76 1014.7
20260506115201 63 172 0.0 0.0 0.00 0.00 0.00 75 1014.8
20260506114705 63 172 0.0 0.0 0.00 0.00 0.00 75 1014.9
20260506114213 63 172 0.0 0.0 0.00 0.00 0.00 74 1014.9
20260506113701 63 172 0.0 0.0 0.00 0.00 0.00 74 1014.9
20260506113201 63 172 0.0 0.0 0.00 0.00 0.00 74 1014.7
20260506112701 63 172 0.0 0.0 0.00 0.00 0.00 74 1014.8
20260506112201 63 172 0.0 0.0 0.00 0.00 0.00 74 1014.6
20260506111701 63 172 0.0 0.0 0.00 0.00 0.00 74 1014.5
20260506111201 63 172 0.0 0.0 0.00 0.00 0.00 73 1014.5
20260506110701 63 172 0.0 0.0 0.00 0.00 0.00 73 1014.3
20260506110203 63 172 0.0 0.0 0.00 0.00 0.00 73 1014.1
20260506105710 63 172 0.0 0.0 0.00 0.00 0.00 73 1014.1
20260506105218 63 172 0.0 0.0 0.00 0.00 0.00 73 1014.1
20260506104725 63 172 0.0 0.0 0.00 0.00 0.00 73 1014.1
20260506104233 63 172 0.0 0.0 0.00 0.00 0.00 72 1013.9
20260506103740 63 172 0.0 0.0 0.00 0.00 0.00 72 1013.6
20260506103248 63 172 0.0 0.0 0.00 0.00 0.00 72 1013.5
20260506102755 63 172 0.0 0.0 0.00 0.00 0.00 72 1013.3
20260506102239 63 172 0.0 0.0 0.00 0.00 0.00 71 1013.3
20260506101722 63 172 0.0 0.0 0.00 0.00 0.00 71 1013.4
20260506101230 63 172 0.0 0.0 0.00 0.00 0.00 71 1013.5
20260506100725 63 172 0.0 0.0 0.00 0.00 0.00 71 1013.4
20260506100201 63 172 0.0 0.0 0.00 0.00 0.00 70 1013.1
20260506095701 63 172 0.0 0.0 0.00 0.00 0.00 70 1013.1
20260506095201 63 172 0.0 0.0 0.00 0.00 0.00 70 1013.2
20260506094701 63 172 0.0 0.0 0.00 0.00 0.00 70 1013.2
20260506094201 63 172 0.0 0.0 0.00 0.00 0.00 70 1013.4
20260506093701 63 172 0.0 0.0 0.00 0.00 0.00 70 1013.3
20260506093201 64 172 0.0 0.0 0.00 0.00 0.00 70 1013.3
20260506092701 64 172 0.0 0.0 0.00 0.00 0.00 70 1013.3
20260506092201 64 172 0.0 0.0 0.00 0.00 0.00 71 1013.1
20260506091701 64 172 0.0 0.0 0.00 0.00 0.00 71 1013.3
20260506091201 63 172 0.0 0.0 0.00 0.00 0.00 70 1013.5
20260506090701 63 172 0.0 0.0 0.00 0.00 0.00 70 1013.4
20260506090201 63 172 0.0 0.0 0.00 0.00 0.00 70 1013.3
20260506085701 63 172 0.0 0.0 0.00 0.00 0.00 70 1013.4
20260506085201 63 172 0.0 0.0 0.00 0.00 0.00 69 1013.4
20260506084705 63 172 0.0 0.0 0.00 0.00 0.00 69 1013.5
20260506084213 63 172 0.0 0.0 0.00 0.00 0.00 69 1013.5
20260506083701 63 172 0.0 0.0 0.00 0.00 0.00 70 1013.5
20260506083201 63 172 0.0 0.0 0.00 0.00 0.00 70 1013.6
20260506082701 63 172 0.0 0.0 0.00 0.00 0.00 68 1013.8
20260506082201 63 172 0.0 0.0 0.00 0.00 0.00 68 1013.9
20260506081701 63 172 0.0 0.0 0.00 0.00 0.00 69 1014.0
20260506081201 63 172 0.0 0.0 0.00 0.00 0.00 69 1013.9
20260506080701 63 172 0.0 0.0 0.00 0.00 0.00 69 1013.8
20260506080201 63 172 0.0 0.0 0.00 0.00 0.00 69 1013.8
20260506073201 63 172 0.0 0.0 0.00 0.00 0.00 68 1013.9
20260506072706 63 172 0.0 0.0 0.00 0.00 0.00 67 1013.9
20260506072213 63 172 0.0 0.0 0.00 0.00 0.00 67 1013.9
20260506071701 63 172 0.0 0.0 0.00 0.00 0.00 67 1013.8
20260506071201 63 172 0.0 0.0 0.00 0.00 0.00 67 1014.0
20260506070701 63 172 0.0 0.0 0.00 0.00 0.00 67 1014.0
20260506070201 63 172 0.0 0.0 0.00 0.00 0.00 67 1014.0
20260506062219 62 172 0.0 0.0 0.00 0.00 0.00 69 1013.9
20260506061727 62 172 0.0 0.0 0.00 0.00 0.00 69 1014.0
20260506061222 62 172 0.0 0.0 0.00 0.00 0.00 69 1013.9
20260506060730 62 172 0.0 0.0 0.00 0.00 0.00 69 1013.8
20260506060213 62 172 0.0 0.0 0.00 0.00 0.00 71 1013.8
20260506050904 62 172 0.0 0.0 0.00 0.00 0.00 70 1014.0
20260506050353 62 172 0.0 0.0 0.00 0.00 0.00 70 1014.0
20260506044852 62 172 0.0 0.0 0.00 0.00 0.00 69 1014.0
20260506044352 62 172 0.0 0.0 0.00 0.00 0.00 69 1014.3
20260506043852 63 172 0.0 0.0 0.00 0.00 0.00 68 1014.2
20260506043352 63 172 0.0 0.0 0.00 0.00 0.00 67 1014.1
20260506042856 63 172 0.0 0.0 0.00 0.00 0.00 67 1013.9
20260506042404 63 172 0.0 0.0 0.00 0.00 0.00 67 1013.9
20260506041852 63 172 0.0 0.0 0.00 0.00 0.00 67 1013.9
20260506041354 64 172 0.0 0.0 0.00 0.00 0.00 66 1014.0
20260506040852 64 172 0.0 0.0 0.00 0.00 0.00 66 1014.1
20260506040352 64 172 0.0 0.0 0.00 0.00 0.00 66 1014.1
20260506035852 64 172 0.0 0.0 0.00 0.00 0.00 65 1014.2
20260506035352 64 172 0.0 0.0 0.00 0.00 0.00 65 1014.3
20260506034852 65 172 0.0 0.0 0.00 0.00 0.00 65 1014.3
20260506034354 65 172 0.0 0.0 0.00 0.00 0.00 63 1014.2
20260506033902 65 172 0.0 0.0 0.00 0.00 0.00 63 1014.3
20260506033410 65 172 0.0 0.0 0.00 0.00 0.00 62 1014.1
20260506032905 65 172 0.0 0.0 0.00 0.00 0.00 62 1014.1
20260506032413 66 172 0.0 0.0 0.00 0.00 0.00 61 1013.9
20260506031909 66 172 0.0 0.0 0.00 0.00 0.00 61 1014.0
20260506031416 66 172 0.0 0.0 0.00 0.00 0.00 61 1013.9
20260506030852 67 172 0.0 0.0 0.00 0.00 0.00 60 1014.0
20260506030357 67 172 0.0 0.0 0.00 0.00 0.00 60 1014.1
20260506025904 67 172 0.0 0.0 0.00 0.00 0.00 58 1014.2
20260506025352 67 172 0.0 0.0 0.00 0.00 0.00 58 1014.2
20260506024852 68 172 0.0 0.0 0.00 0.00 0.00 57 1014.3
20260506024352 68 172 0.0 0.0 0.00 0.00 0.00 56 1014.2
20260506023852 68 172 0.0 0.0 0.00 0.00 0.00 56 1014.2
20260506023352 69 172 0.0 0.0 0.00 0.00 0.00 55 1014.3
20260506022852 69 172 0.0 0.0 0.00 0.00 0.00 54 1014.2
20260506022358 69 172 0.0 0.0 0.00 0.00 0.00 54 1014.1
20260506021906 69 172 0.0 0.0 0.00 0.00 0.00 53 1014.2
20260506021401 70 172 0.0 0.0 0.00 0.00 0.00 52 1014.1
20260506020909 70 172 0.0 0.0 0.00 0.00 0.00 52 1014.1
20260506020404 70 172 0.0 0.0 0.00 0.00 0.00 51 1014.0
20260506015852 71 172 0.0 0.0 0.00 0.00 0.00 50 1013.9
20260506015354 71 172 0.0 0.0 0.00 0.00 0.00 50 1013.8
20260506014901 71 172 0.0 0.0 0.00 0.00 0.00 50 1013.8
20260506014408 72 172 0.0 0.0 0.00 0.00 0.00 50 1013.7
20260506013904 72 172 0.0 0.0 0.00 0.00 0.00 48 1013.6
20260506013356 72 172 0.0 0.0 0.00 0.00 0.00 48 1013.7
20260506012904 72 172 0.0 0.0 0.00 0.00 0.00 47 1013.6
20260506012352 73 172 0.0 0.0 0.00 0.00 0.00 48 1013.5
20260506011856 73 172 0.0 0.0 0.00 0.00 0.00 47 1013.7
20260506011404 73 172 0.0 0.0 0.00 0.00 0.00 47 1013.7
20260506010852 73 172 0.0 0.0 0.00 0.00 0.00 47 1013.6
20260506010352 73 172 0.0 0.0 0.00 0.00 0.00 47 1013.6
20260506005852 74 172 0.0 0.0 0.00 0.00 0.00 46 1013.6
20260506005352 74 172 0.0 0.0 0.00 0.00 0.00 46 1013.7
20260506004852 74 172 0.0 0.0 0.00 0.00 0.00 46 1013.7
20260506004352 74 172 0.0 0.0 0.00 0.00 0.00 45 1013.6
20260506003852 75 172 0.0 0.0 0.00 0.00 0.00 45 1013.6
20260506003352 75 172 0.0 0.0 0.00 0.00 0.00 45 1013.6
20260506002852 75 172 0.0 0.0 0.00 0.00 0.00 43 1013.6
20260506002352 76 172 0.0 0.0 0.00 0.00 0.00 43 1013.7
20260506001852 76 172 0.0 0.0 0.00 0.00 0.00 43 1013.7
20260506001352 76 172 0.0 0.0 0.00 0.00 0.00 42 1013.7
20260506000852 76 172 0.0 0.0 0.00 0.00 0.00 42 1013.6
20260506000354 76 172 0.0 0.0 0.00 0.00 0.00 41 1013.5
20260505235852 77 172 0.0 0.0 0.00 0.00 0.00 41 1013.5
20260505235352 77 172 0.0 0.0 0.00 0.00 0.00 40 1013.5
20260505234856 77 172 0.0 0.0 0.00 0.00 0.00 41 1013.5
20260505234404 77 172 0.0 0.0 0.00 0.00 0.00 40 1013.4
20260505233852 77 172 0.0 0.0 0.00 0.00 0.00 40 1013.4
20260505233356 78 172 0.0 0.0 0.00 0.00 0.00 40 1013.4
20260505232904 78 172 0.0 0.0 0.00 0.00 0.00 39 1013.4
20260505232352 78 172 0.0 0.0 0.00 0.00 0.00 39 1013.5
20260505231852 78 172 0.0 0.0 0.00 0.00 0.00 39 1013.4
20260505231352 78 172 0.0 0.0 0.00 0.00 0.00 39 1013.3
20260505230856 78 172 0.0 0.0 0.00 0.00 0.00 39 1013.3
20260505230404 79 172 0.0 0.0 0.00 0.00 0.00 39 1013.2
20260505225852 79 172 0.0 0.0 0.00 0.00 0.00 39 1013.1
20260505225351 79 172 0.0 0.0 0.00 0.00 0.00 39 1013.2
20260505224856 79 172 0.0 0.0 0.00 0.00 0.00 38 1013.3
20260505224404 79 172 0.0 0.0 0.00 0.00 0.00 38 1013.2
20260505223856 79 172 0.0 0.0 0.00 0.00 0.00 38 1013.2
20260505223404 79 172 0.0 0.0 0.00 0.00 0.00 38 1013.4
20260505222852 80 172 0.0 2.0 0.00 0.00 0.00 39 1013.5
20260505222352 80 172 0.0 3.0 0.00 0.00 0.00 38 1013.4
20260505221852 80 172 0.0 3.0 0.00 0.00 0.00 38 1013.4
20260505221352 80 172 0.0 1.0 0.00 0.00 0.00 38 1013.3
20260505220856 80 172 0.0 4.0 0.00 0.00 0.00 37 1013.4
20260505220404 80 172 0.0 4.0 0.00 0.00 0.00 36 1013.2
20260505215852 81 172 0.0 0.0 0.00 0.00 0.00 36 1013.2
20260505215352 81 172 0.0 2.0 0.00 0.00 0.00 36 1013.3
20260505214852 81 172 0.0 2.0 0.00 0.00 0.00 36 1013.6
20260505214357 81 172 0.0 0.0 0.00 0.00 0.00 36 1013.5
20260505213852 81 172 0.0 0.0 0.00 0.00 0.00 35 1013.5
20260505213351 82 172 0.0 0.0 0.00 0.00 0.00 34 1013.5
20260505212852 82 172 0.0 1.0 0.00 0.00 0.00 34 1013.5